[[{"header":{"parameterUnit":"m.s-1","parameterCategory":2,"la1":30.2991,"la2":30.254,"lo1":-89.0895,"lo2":-89.0444,"dy":0.0017,"dx":0.0017,"nx":28,"ny":28,"refTime":"2026-02-26T03:00:00:Z","depth":"0","parameterNumber":2,"parameterNumberName":"U-component_of_CURRENTS"},"data":[0,0,0,0,0,0,0,0,0,0,0,0,0,0,0,0,0,0,0,0,0,0,0,0,0,0,0,0,0,0,0,0,0,0,0,0,0,0,0,0,0,0,0,0,0,0,0,0,0,0,0,0,0,0,0,0,0,0,-0.2577,-0.2577,0,-0.2605,-0.2606,-0.2606,-0.257,-0.2569,-0.2568,-0.2567,-0.2527,-0.2527,-0.2526,0,0,0,0,0,0,0,0,0,0,0,0,0,-0.2497,-0.2498,-0.2577,-0.2577,-0.2578,-0.2605,-0.2606,-0.2606,-0.257,-0.2569,-0.2568,-0.2567,-0.2527,-0.2527,-0.2526,0,0,0,0,0,0,0,0,0,0,0,0,0,-0.2527,-0.2499,-0.2577,-0.2566,-0.2565,-0.2605,-0.2606,-0.2606,-0.2571,-0.2569,-0.2568,-0.2566,-0.2527,-0.2527,-0.2526,-0.2557,0,0,-0.2526,-0.2526,0,0,0,0,0,0,0,0,-0.2525,-0.2529,-0.2567,-0.2567,-0.2566,-0.2585,-0.2563,-0.2587,-0.2571,-0.2566,-0.2567,-0.2565,-0.2543,-0.2541,-0.2547,-0.2555,-0.2553,-0.2526,-0.2526,-0.2526,-0.2526,0,0,0,0,0,0,0,-0.2523,-0.2528,-0.2585,-0.2568,-0.2567,-0.2562,-0.2564,-0.2567,-0.2559,-0.2566,-0.2564,-0.2573,-0.2542,-0.2547,-0.2546,-0.2552,-0.2526,-0.2526,-0.2526,-0.2526,-0.257,-0.2571,0,0,0,0,0,0,-0.2527,-0.2526,-0.2584,-0.2586,-0.2545,-0.2565,-0.2567,-0.2578,-0.2561,-0.2558,-0.2574,-0.2571,-0.2548,-0.2546,-0.2544,-0.2564,-0.2526,-0.2526,-0.2525,-0.2569,-0.257,-0.2572,0,0,0,0,0,0,-0.2525,-0.2532,-0.2583,-0.2559,-0.2565,-0.2568,-0.2581,-0.258,-0.258,-0.2568,-0.2563,-0.2575,-0.2547,-0.2544,-0.2551,-0.2563,-0.2525,-0.2525,-0.2567,-0.2569,-0.2571,-0.2614,0,0,0,0,0,0,-0.2523,-0.2531,-0.2536,-0.2559,-0.2567,-0.261,-0.2583,-0.2582,-0.259,-0.2586,-0.2568,-0.2562,-0.2546,-0.2552,-0.2551,-0.2562,-0.2525,-0.2566,-0.2568,-0.257,-0.2611,-0.2617,-0.2622,0,0,0,0,0,-0.252,-0.2537,-0.2536,-0.2543,-0.2575,-0.2612,-0.2615,-0.2609,-0.2591,-0.2601,-0.2589,-0.2563,-0.2566,-0.2553,-0.2552,-0.2562,-0.2564,-0.2567,-0.257,-0.2608,-0.2616,-0.2622,0,0,0,0,0,0,-0.2499,-0.2536,-0.2536,-0.256,-0.2585,-0.2606,-0.2614,-0.2614,-0.2614,-0.2604,-0.2582,-0.2578,-0.2588,-0.2577,-0.2563,-0.2584,-0.256,-0.2563,-0.2589,-0.2596,-0.2602,-0.2591,-0.2525,0,0,0,0,0,-0.2501,-0.252,-0.2556,-0.2572,-0.2588,-0.2602,-0.2613,-0.2616,-0.2623,-0.2621,-0.261,-0.2601,-0.2604,-0.2599,-0.26,-0.2615,-0.2586,-0.2621,-0.2627,-0.2632,-0.2624,-0.2609,-0.2612,-0.2581,-0.2581,-0.2581,0,0,-0.2494,-0.2518,-0.2526,-0.2569,-0.2583,-0.2615,-0.2603,-0.2628,-0.2645,-0.2618,-0.2628,-0.2623,-0.2614,-0.2628,-0.2631,-0.2616,-0.2625,-0.2635,-0.2639,-0.2628,-0.2612,-0.2614,-0.2617,-0.2583,-0.2583,-0.2582,0,0,-0.2501,-0.2517,-0.254,-0.2569,-0.2606,-0.2622,-0.2631,-0.266,-0.266,-0.2683,-0.2665,-0.2666,-0.2672,-0.2665,-0.2662,-0.2703,-0.266,-0.2707,-0.2721,-0.2707,-0.2709,-0.271,-0.2671,-0.2669,-0.2705,-0.2705,-0.2705,0,-0.249,-0.2524,-0.2551,-0.2587,-0.2606,-0.2627,-0.2656,-0.2674,-0.2697,-0.2698,-0.2689,-0.2696,-0.2687,-0.2697,-0.271,-0.2713,-0.269,-0.2693,-0.2712,-0.2713,-0.2713,-0.2674,-0.267,-0.2708,-0.2707,-0.2707,-0.2707,0,-0.2519,-0.2547,-0.2565,-0.2613,-0.2641,-0.267,-0.2706,-0.2725,-0.2728,-0.2737,-0.2749,-0.2744,-0.2739,-0.2747,-0.2739,-0.2745,-0.2723,-0.2723,-0.269,-0.2719,-0.2675,-0.2671,-0.2711,-0.271,-0.271,-0.2709,0,0,-0.2482,-0.2568,-0.2569,-0.2595,-0.2656,-0.268,-0.2718,-0.2752,-0.2763,-0.278,-0.2783,-0.2796,-0.2783,-0.278,-0.2773,-0.2763,-0.2747,-0.2745,-0.2744,-0.2697,-0.2698,-0.2602,-0.2587,-0.2753,-0.2753,-0.2752,-0.2663,0,-0.2488,-0.2551,-0.2593,-0.264,-0.2673,-0.2712,-0.2744,-0.2775,-0.2792,-0.2803,-0.28,-0.2804,-0.2801,-0.2795,-0.2788,-0.2761,-0.2739,-0.277,-0.2685,-0.2681,-0.2585,-0.258,-0.2465,-0.2369,-0.2658,-0.2658,-0.2657,0,-0.2491,-0.2535,-0.2585,-0.2652,-0.2668,-0.2698,-0.2737,-0.2772,-0.2803,-0.2813,-0.2819,-0.2818,-0.2809,-0.2801,-0.2757,-0.2777,-0.2737,-0.2712,-0.2708,-0.2597,-0.2577,-0.2389,-0.2349,-0.2332,-0.265,-0.265,-0.2651,0,-0.2437,-0.252,-0.2553,-0.2579,-0.2664,-0.2681,-0.2717,-0.2762,-0.2782,-0.2811,-0.2817,-0.2817,-0.2802,-0.2772,-0.2721,-0.274,-0.2656,-0.2674,-0.2545,-0.2538,-0.2408,-0.2389,-0.233,-0.2631,-0.2631,-0.2631,-0.2631,0,-0.2419,-0.2441,-0.253,-0.2548,-0.2574,-0.2647,-0.2671,-0.271,-0.2756,-0.2765,-0.2807,-0.2797,-0.2796,-0.2754,-0.2712,-0.2598,-0.2643,-0.253,-0.2506,-0.242,-0.2403,-0.2358,-0.2394,-0.2628,-0.2629,-0.2629,-0.263,0,-0.2342,-0.2409,-0.2446,-0.253,-0.255,-0.2563,-0.2636,-0.2652,-0.2715,-0.2725,-0.2732,-0.2769,-0.2709,-0.268,-0.2615,-0.2564,-0.243,-0.243,-0.2314,-0.2277,-0.2137,-0.218,-0.2097,-0.2039,-0.227,-0.2267,-0.2264,0,-0.2306,-0.2319,-0.2401,-0.241,-0.2441,-0.2482,-0.2504,-0.2601,-0.2624,-0.269,-0.2678,-0.2658,-0.259,-0.2463,-0.2375,-0.2257,-0.2294,-0.2106,-0.212,-0.2093,-0.2124,-0.2176,-0.2138,-0.1967,-0.1962,-0.1958,-0.1955,0,-0.2212,-0.2241,-0.2266,-0.23,-0.2325,-0.2364,-0.2411,-0.2434,-0.2535,-0.2535,-0.2516,-0.2469,-0.2366,-0.2195,-0.2076,-0.2006,-0.2055,-0.2021,-0.2028,-0.19,-0.1917,-0.186,-0.2061,-0.1921,-0.1924,-0.1927,-0.1928,-0.193,-0.2111,-0.2103,-0.214,-0.2156,-0.2196,-0.2226,-0.2184,-0.2255,-0.226,-0.2215,-0.2303,-0.2162,-0.2076,-0.1876,-0.1806,-0.1677,-0.1776,-0.1639,-0.1696,-0.1753,-0.1687,-0.1795,-0.1612,-0.1613,-0.1615,-0.1616,-0.1617,0,-0.197,-0.1981,-0.1992,-0.2022,-0.2016,-0.2075,-0.2088,-0.1995,-0.1927,-0.1927,-0.1864,-0.1774,-0.1626,-0.1569,-0.1464,-0.1388,-0.1383,-0.1377,-0.1438,-0.1417,-0.1518,-0.1493,-0.1232,-0.1232,-0.1232,-0.1232,-0.1232,-0.1232,-0.1894,-0.1853,-0.1868,-0.1823,-0.1835,-0.1703,-0.1654,-0.1557,-0.148,-0.1321,-0.126,-0.1255,-0.1327,-0.1458,-0.1361,-0.129,-0.1294,-0.1243,-0.1302,-0.1401,-0.1431,-0.146,-0.1443,-0.1176,-0.1176,-0.1131,-0.1131,-0.1131]},{"header":{"parameterUnit":"m.s-1","parameterCategory":2,"la1":30.2991,"la2":30.254,"lo1":-89.0895,"lo2":-89.0444,"dy":0.0017,"dx":0.0017,"nx":28,"ny":28,"refTime":"2026-02-26T03:00:00:Z","depth":"0","parameterNumber":3,"parameterNumberName":"V-component_of_CURRENTS"},"data":[0,0,0,0,0,0,0,0,0,0,0,0,0,0,0,0,0,0,0,0,0,0,0,0,0,0,0,0,0,0,0,0,0,0,0,0,0,0,0,0,0,0,0,0,0,0,0,0,0,0,0,0,0,0,0,0,0,0,-0.0138,-0.0138,0,-0.0056,-0.0055,-0.0054,0.0004,0.0004,0.0004,0.0005,0.0123,0.0126,0.0128,0,0,0,0,0,0,0,0,0,0,0,0,0,-0.0189,-0.0189,-0.0139,-0.0138,-0.0137,-0.0056,-0.0055,-0.0054,0.0004,0.0004,0.0004,0.0005,0.0122,0.0125,0.0129,0,0,0,0,0,0,0,0,0,0,0,0,0,-0.0142,-0.0189,-0.0139,-0.0099,-0.0095,-0.0056,-0.0055,-0.0053,0.0004,0.0004,0.0005,0.0005,0.0121,0.0125,0.0129,0.0145,0,0,0.0142,0.0144,0,0,0,0,0,0,0,0,-0.0145,-0.014,-0.0106,-0.0102,-0.0097,-0.0037,-0.0029,0.0014,0.0003,-0.0033,0.0005,0.0005,0.0072,0.008,0.0095,0.0151,0.0156,0.0142,0.0145,0.0147,0.0148,0,0,0,0,0,0,0,-0.0148,-0.0143,-0.0105,-0.0105,-0.01,-0.0066,-0.0059,-0.0021,0.0017,-0.0029,-0.0025,-0.0018,0.0075,0.0091,0.0099,0.0157,0.0142,0.0146,0.0149,0.015,0.0251,0.0251,0,0,0,0,0,0,-0.0164,-0.0147,-0.0107,-0.0102,-0.0121,-0.0066,-0.0058,-0.0056,0.0016,0.0027,-0.0019,-0.0016,0.0084,0.0094,0.0103,0.0132,0.0147,0.0151,0.0153,0.0251,0.0251,0.0251,0,0,0,0,0,0,-0.0166,-0.0162,-0.0111,-0.0123,-0.0114,-0.0066,-0.0064,-0.0055,-0.0038,0.0024,0.0036,-0.0012,0.0084,0.0097,0.0138,0.0137,0.0153,0.0157,0.0251,0.0251,0.0251,0.0186,0,0,0,0,0,0,-0.0168,-0.0163,-0.0169,-0.0124,-0.0114,-0.0096,-0.0064,-0.0053,-0.0035,-0.003,0.0033,0.0045,0.0086,0.0131,0.0142,0.0143,0.016,0.0251,0.0251,0.0251,0.0188,0.0184,0.0181,0,0,0,0,0,-0.017,-0.0184,-0.017,-0.0165,-0.0124,-0.0096,-0.0088,-0.0051,-0.0035,-0.0033,0.0014,0.0043,0.014,0.0134,0.0147,0.0149,0.025,0.0251,0.0251,0.019,0.0185,0.0181,0,0,0,0,0,0,-0.0213,-0.0178,-0.0162,-0.0166,-0.0136,-0.0087,-0.0084,-0.0057,-0.0019,-0.0015,0.0045,0.006,0.0094,0.0131,0.0123,0.018,0.02,0.0203,0.0149,0.0145,0.0142,0.0126,0.0163,0,0,0,0,0,-0.0226,-0.0225,-0.0185,-0.0189,-0.0177,-0.0132,-0.0117,-0.0092,-0.0051,-0.0034,0.0012,0.0062,0.0106,0.0131,0.0173,0.0203,0.0247,0.0214,0.021,0.0206,0.0203,0.027,0.0272,0.0252,0.0252,0.0252,0,0,-0.0244,-0.0225,-0.0225,-0.0198,-0.0172,-0.0164,-0.0122,-0.0106,-0.0095,-0.0027,-0.0,0.0048,0.011,0.0145,0.0164,0.0176,0.0235,0.0207,0.0203,0.0202,0.0271,0.0273,0.0275,0.0252,0.0252,0.0252,0,0,-0.0283,-0.0264,-0.0277,-0.0256,-0.0225,-0.0193,-0.0193,-0.0146,-0.0121,-0.0089,-0.0036,0.0011,0.0074,0.0122,0.0154,0.0155,0.0211,0.0168,0.014,0.0205,0.0207,0.0209,0.0263,0.027,0.0168,0.0168,0.0168,0,-0.0308,-0.0316,-0.0276,-0.0281,-0.027,-0.0212,-0.0221,-0.0186,-0.0131,-0.0109,-0.0091,0.0015,0.0064,0.0119,0.012,0.0146,0.0189,0.0149,0.0199,0.0202,0.0206,0.0261,0.027,0.0165,0.0165,0.0166,0.0166,0,-0.0352,-0.0357,-0.0363,-0.0348,-0.033,-0.0329,-0.0277,-0.0254,-0.0216,-0.0172,-0.0114,-0.0039,0.0024,0.005,0.0086,0.0136,0.016,0.0183,0.0206,0.0204,0.0262,0.0273,0.0161,0.0162,0.0163,0.0163,0,0,-0.0412,-0.0399,-0.0401,-0.0407,-0.0367,-0.0358,-0.0337,-0.0296,-0.0278,-0.0212,-0.0178,-0.0095,-0.0047,-0.0007,0.0052,0.0112,0.0173,0.0152,0.0157,0.0197,0.0311,0.0351,0.0367,0.0206,0.0208,0.0209,0.0339,0,-0.046,-0.0494,-0.0463,-0.0485,-0.0498,-0.0437,-0.0421,-0.0373,-0.0316,-0.0267,-0.0174,-0.0119,-0.007,-0.0036,0.0029,0.014,0.0199,0.0135,0.0315,0.032,0.0349,0.038,0.0425,0.0548,0.035,0.0352,0.0354,0,-0.0513,-0.0529,-0.0567,-0.0557,-0.0555,-0.0552,-0.051,-0.0485,-0.0395,-0.0349,-0.027,-0.0192,-0.0092,-0.0053,0.0129,0.0086,0.0187,0.0273,0.0281,0.0348,0.038,0.0521,0.0576,0.0727,0.0371,0.037,0.0368,0,-0.0586,-0.0598,-0.0634,-0.0632,-0.061,-0.0608,-0.0587,-0.0514,-0.0488,-0.0395,-0.036,-0.0231,-0.0156,-0.0019,0.016,0.0147,0.0366,0.0372,0.0502,0.0506,0.0595,0.0604,0.0813,0.0496,0.0496,0.0495,0.0495,0,-0.0654,-0.0679,-0.0673,-0.0694,-0.0726,-0.0678,-0.0681,-0.0638,-0.0563,-0.0518,-0.0409,-0.0334,-0.0142,0.001,0.0153,0.037,0.0365,0.0507,0.0549,0.0573,0.0578,0.0755,0.0799,0.05,0.0499,0.0498,0.0497,0,-0.073,-0.0725,-0.0767,-0.0765,-0.0766,-0.0788,-0.0756,-0.0746,-0.0668,-0.0603,-0.0574,-0.0397,-0.019,0.0006,0.0255,0.0372,0.0669,0.064,0.065,0.069,0.0928,0.0966,0.1196,0.1296,0.0796,0.0798,0.0799,0,-0.0773,-0.0804,-0.0835,-0.0862,-0.0865,-0.088,-0.0885,-0.0815,-0.0785,-0.0624,-0.0592,-0.0382,-0.02,0.0163,0.0408,0.0671,0.0781,0.085,0.0832,0.0963,0.1037,0.1057,0.1125,0.0928,0.093,0.0932,0.0934,0,-0.0851,-0.0859,-0.0894,-0.0959,-0.0983,-0.0993,-0.098,-0.0957,-0.0841,-0.0726,-0.0533,-0.037,-0.0044,0.0295,0.0611,0.0765,0.0965,0.0899,0.1051,0.1173,0.1195,0.1303,0.0806,0.0952,0.095,0.0949,0.0948,0.0947,-0.09,-0.0947,-0.0991,-0.1045,-0.1075,-0.1063,-0.0988,-0.0922,-0.0795,-0.05,-0.0454,-0.009,0.0217,0.0681,0.0843,0.1185,0.1136,0.1296,0.1335,0.1347,0.1437,0.0967,0.1144,0.1144,0.1143,0.1142,0.1142,0,-0.0952,-0.0999,-0.1067,-0.1097,-0.1108,-0.1097,-0.1008,-0.0847,-0.06,-0.0344,-0.0083,0.0359,0.0738,0.1037,0.1429,0.1619,0.1654,0.1713,0.1768,0.1821,0.1439,0.1438,0.1667,0.1667,0.1667,0.1666,0.1666,0.1666,-0.0979,-0.1056,-0.1091,-0.111,-0.1095,-0.0951,-0.0837,-0.0602,-0.0356,0.0164,0.0531,0.074,0.1044,0.1596,0.1983,0.2022,0.2197,0.217,0.2262,0.2004,0.1968,0.1934,0.1947,0.2279,0.228,0.265,0.2653,0.2656]}],[{"header":{"parameterUnit":"m.s-1","parameterCategory":2,"la1":30.2991,"la2":30.254,"lo1":-89.0895,"lo2":-89.0444,"dy":0.0017,"dx":0.0017,"nx":28,"ny":28,"refTime":"2026-02-26T03:00:00:Z","depth":"2","parameterNumber":2,"parameterNumberName":"U-component_of_CURRENTS"},"data":[0,0,0,0,0,0,0,0,0,0,0,0,0,0,0,0,0,0,0,0,0,0,0,0,0,0,0,0,0,0,0,0,0,0,0,0,0,0,0,0,0,0,0,0,0,0,0,0,0,0,0,0,0,0,0,0,0,0,-0.2389,-0.239,0,-0.2421,-0.2422,-0.2422,-0.2397,-0.2396,-0.2395,-0.2394,-0.2369,-0.237,-0.237,0,0,0,0,0,0,0,0,0,0,0,0,0,-0.231,-0.2311,-0.2389,-0.239,-0.239,-0.2421,-0.2422,-0.2422,-0.2397,-0.2396,-0.2395,-0.2394,-0.2369,-0.237,-0.237,0,0,0,0,0,0,0,0,0,0,0,0,0,-0.2341,-0.2312,-0.2389,-0.2384,-0.2384,-0.2421,-0.2422,-0.2422,-0.2397,-0.2396,-0.2395,-0.2394,-0.2369,-0.237,-0.237,-0.2396,0,0,-0.237,-0.237,0,0,0,0,0,0,0,0,-0.2339,-0.2344,-0.2384,-0.2384,-0.2384,-0.2406,-0.2385,-0.2411,-0.2398,-0.2389,-0.2394,-0.2393,-0.2379,-0.2378,-0.2384,-0.2395,-0.2394,-0.237,-0.237,-0.237,-0.2371,0,0,0,0,0,0,0,-0.2337,-0.2342,-0.2399,-0.2385,-0.2385,-0.2381,-0.2384,-0.239,-0.2388,-0.239,-0.2389,-0.2397,-0.2378,-0.2384,-0.2383,-0.2393,-0.237,-0.237,-0.2371,-0.2371,-0.2422,-0.2423,0,0,0,0,0,0,-0.234,-0.2341,-0.2398,-0.2401,-0.2361,-0.2384,-0.2387,-0.2398,-0.2389,-0.2388,-0.2398,-0.2396,-0.2385,-0.2383,-0.2382,-0.2409,-0.237,-0.2371,-0.2371,-0.242,-0.2422,-0.2423,0,0,0,0,0,0,-0.2338,-0.2345,-0.2397,-0.2373,-0.2379,-0.2387,-0.24,-0.24,-0.2404,-0.2396,-0.2393,-0.2403,-0.2384,-0.2382,-0.2394,-0.2408,-0.2371,-0.2371,-0.2419,-0.2421,-0.2423,-0.2465,0,0,0,0,0,0,-0.2336,-0.2344,-0.2351,-0.2373,-0.2381,-0.2424,-0.2401,-0.2401,-0.2413,-0.241,-0.24,-0.2396,-0.2382,-0.2394,-0.2394,-0.2407,-0.2371,-0.2417,-0.242,-0.2422,-0.2462,-0.2468,-0.2473,0,0,0,0,0,-0.2333,-0.2349,-0.2351,-0.2358,-0.2391,-0.2425,-0.2429,-0.2427,-0.2414,-0.2424,-0.2418,-0.2396,-0.2408,-0.2395,-0.2395,-0.2409,-0.2416,-0.2419,-0.2422,-0.2459,-0.2467,-0.2473,0,0,0,0,0,0,-0.2314,-0.235,-0.2351,-0.2376,-0.2401,-0.2422,-0.2431,-0.2433,-0.2438,-0.2431,-0.2415,-0.2412,-0.2428,-0.2418,-0.2404,-0.2432,-0.2408,-0.2411,-0.2437,-0.2444,-0.2449,-0.244,-0.2371,0,0,0,0,0,-0.2317,-0.2336,-0.237,-0.2387,-0.2402,-0.2418,-0.2429,-0.2435,-0.2445,-0.2445,-0.244,-0.2437,-0.2443,-0.2441,-0.2445,-0.2463,-0.2437,-0.2472,-0.2478,-0.2482,-0.2477,-0.2464,-0.2468,-0.2433,-0.2433,-0.2433,0,0,-0.2312,-0.2335,-0.2344,-0.2384,-0.2399,-0.243,-0.2421,-0.2446,-0.2465,-0.2443,-0.246,-0.2458,-0.2453,-0.2472,-0.2477,-0.2462,-0.2479,-0.2486,-0.249,-0.2481,-0.2468,-0.2471,-0.2473,-0.2435,-0.2434,-0.2434,0,0,-0.2319,-0.2337,-0.2358,-0.2386,-0.2421,-0.2438,-0.2448,-0.2478,-0.2482,-0.2509,-0.2495,-0.2502,-0.2513,-0.251,-0.2509,-0.255,-0.2512,-0.2556,-0.2572,-0.2561,-0.2563,-0.2565,-0.2531,-0.2529,-0.2555,-0.2555,-0.2555,0,-0.2311,-0.2343,-0.2368,-0.2401,-0.2422,-0.2443,-0.2472,-0.2492,-0.2519,-0.2524,-0.2518,-0.2534,-0.253,-0.2544,-0.2558,-0.2561,-0.2541,-0.2545,-0.2567,-0.2568,-0.2569,-0.2533,-0.2531,-0.2557,-0.2557,-0.2557,-0.2556,0,-0.2337,-0.2365,-0.2382,-0.2428,-0.2456,-0.2485,-0.2522,-0.2544,-0.2552,-0.2565,-0.2584,-0.2584,-0.2586,-0.2594,-0.2588,-0.2599,-0.2578,-0.2577,-0.2545,-0.2574,-0.2535,-0.2532,-0.2561,-0.256,-0.2559,-0.2558,0,0,-0.2304,-0.2384,-0.2386,-0.2412,-0.2471,-0.2495,-0.2537,-0.2573,-0.2588,-0.2612,-0.2622,-0.2641,-0.2632,-0.2632,-0.2627,-0.262,-0.261,-0.2603,-0.2601,-0.256,-0.2568,-0.2474,-0.2461,-0.2614,-0.2613,-0.2613,-0.2535,0,-0.231,-0.2369,-0.2409,-0.2457,-0.2489,-0.2529,-0.2564,-0.2599,-0.262,-0.2638,-0.2641,-0.2652,-0.265,-0.2649,-0.2645,-0.2621,-0.2604,-0.263,-0.2552,-0.2549,-0.2456,-0.2455,-0.2287,-0.2196,-0.2531,-0.2531,-0.253,0,-0.2313,-0.2354,-0.2404,-0.2472,-0.2488,-0.252,-0.2567,-0.2603,-0.264,-0.2654,-0.2667,-0.2669,-0.2668,-0.2661,-0.2625,-0.2642,-0.2606,-0.2584,-0.258,-0.2473,-0.2449,-0.2223,-0.2176,-0.2524,-0.2524,-0.2525,-0.2525,0,-0.2265,-0.2344,-0.2379,-0.2405,-0.2489,-0.251,-0.2548,-0.2598,-0.2621,-0.2657,-0.2666,-0.2674,-0.2665,-0.2639,-0.2595,-0.2611,-0.254,-0.2553,-0.2432,-0.2424,-0.2252,-0.2229,-0.2518,-0.2518,-0.2518,-0.2518,-0.2518,0,-0.2249,-0.2273,-0.236,-0.238,-0.2413,-0.2483,-0.2514,-0.2555,-0.2604,-0.2616,-0.2661,-0.2656,-0.2661,-0.2625,-0.2589,-0.2484,-0.2529,-0.242,-0.2396,-0.2262,-0.2242,-0.2509,-0.251,-0.2515,-0.2516,-0.2516,-0.2517,0,-0.218,-0.2244,-0.2284,-0.2369,-0.2391,-0.241,-0.2485,-0.2505,-0.2569,-0.2582,-0.2592,-0.2631,-0.2579,-0.2558,-0.2501,-0.2454,-0.238,-0.2332,-0.2162,-0.2119,-0.2274,-0.2277,-0.2187,-0.2183,-0.218,-0.2177,-0.2175,0,-0.2148,-0.2164,-0.2248,-0.2261,-0.2295,-0.2341,-0.2366,-0.246,-0.2482,-0.2548,-0.2537,-0.2525,-0.2463,-0.2352,-0.2268,-0.2161,-0.2261,-0.1965,-0.1966,-0.2253,-0.2239,-0.2248,-0.2256,-0.1753,-0.1748,-0.1743,-0.174,0,-0.2066,-0.2097,-0.2126,-0.2163,-0.2192,-0.223,-0.2278,-0.2296,-0.2391,-0.2403,-0.2385,-0.2343,-0.2246,-0.2056,-0.1949,-0.1878,-0.1972,-0.1867,-0.2196,-0.1871,-0.184,-0.1828,-0.1851,-0.1699,-0.1703,-0.1706,-0.1708,-0.1709,-0.1979,-0.1976,-0.2015,-0.2033,-0.2073,-0.2091,-0.2071,-0.2134,-0.2143,-0.2132,-0.2174,-0.2034,-0.199,-0.1708,-0.161,-0.154,-0.168,-0.1619,-0.1636,-0.1656,-0.1627,-0.1593,-0.1398,-0.1401,-0.1403,-0.1404,-0.1406,0,-0.1857,-0.1867,-0.1879,-0.1889,-0.1856,-0.1946,-0.198,-0.1912,-0.1869,-0.1895,-0.1842,-0.1566,-0.1428,-0.1383,-0.1203,-0.1176,-0.1187,-0.1137,-0.1158,-0.1198,-0.1234,-0.1187,-0.0839,-0.0838,-0.0836,-0.0835,0,0,-0.1791,-0.1754,-0.1763,-0.1662,-0.1664,-0.1577,-0.1569,-0.1523,-0.1496,-0.1403,-0.133,-0.1381,-0.1338,-0.1087,-0.1039,-0.0912,-0.1052,-0.0865,-0.1318,-0.1383,-0.1418,-0.1505,-0.1476,0,0,0,0,0]},{"header":{"parameterUnit":"m.s-1","parameterCategory":2,"la1":30.2991,"la2":30.254,"lo1":-89.0895,"lo2":-89.0444,"dy":0.0017,"dx":0.0017,"nx":28,"ny":28,"refTime":"2026-02-26T03:00:00:Z","depth":"2","parameterNumber":3,"parameterNumberName":"V-component_of_CURRENTS"},"data":[0,0,0,0,0,0,0,0,0,0,0,0,0,0,0,0,0,0,0,0,0,0,0,0,0,0,0,0,0,0,0,0,0,0,0,0,0,0,0,0,0,0,0,0,0,0,0,0,0,0,0,0,0,0,0,0,0,0,-0.0265,-0.0264,0,-0.0191,-0.019,-0.019,-0.0136,-0.0136,-0.0136,-0.0135,-0.0027,-0.0025,-0.0022,0,0,0,0,0,0,0,0,0,0,0,0,0,-0.0315,-0.0315,-0.0265,-0.0264,-0.0263,-0.0191,-0.019,-0.0189,-0.0136,-0.0136,-0.0135,-0.0135,-0.0028,-0.0025,-0.0022,0,0,0,0,0,0,0,0,0,0,0,0,0,-0.0272,-0.0315,-0.0265,-0.0229,-0.0225,-0.0192,-0.019,-0.0189,-0.0136,-0.0136,-0.0135,-0.0135,-0.0029,-0.0025,-0.0021,-0.0009,0,0,-0.001,-0.0008,0,0,0,0,0,0,0,0,-0.0275,-0.027,-0.0235,-0.0231,-0.0227,-0.0173,-0.0168,-0.0127,-0.0137,-0.0169,-0.0135,-0.0135,-0.0074,-0.0066,-0.0053,-0.0004,0.0001,-0.0009,-0.0007,-0.0005,-0.0004,0,0,0,0,0,0,0,-0.0278,-0.0273,-0.0235,-0.0234,-0.0229,-0.0201,-0.0195,-0.016,-0.0124,-0.0166,-0.0162,-0.0156,-0.0071,-0.0057,-0.005,0.0003,-0.001,-0.0006,-0.0004,-0.0002,0.0084,0.0084,0,0,0,0,0,0,-0.0292,-0.0276,-0.0237,-0.0233,-0.0251,-0.0201,-0.0194,-0.019,-0.0125,-0.0115,-0.0156,-0.0154,-0.0063,-0.0054,-0.0046,-0.0019,-0.0005,-0.0002,0.0,0.0084,0.0084,0.0084,0,0,0,0,0,0,-0.0293,-0.0289,-0.024,-0.0253,-0.0245,-0.0201,-0.0197,-0.0189,-0.0174,-0.0118,-0.0107,-0.015,-0.0063,-0.0051,-0.0015,-0.0015,-0.0,0.0003,0.0084,0.0084,0.0084,0.0029,0,0,0,0,0,0,-0.0295,-0.029,-0.0295,-0.0254,-0.0245,-0.0228,-0.0198,-0.0188,-0.0171,-0.0167,-0.0109,-0.0098,-0.0061,-0.0021,-0.0011,-0.0009,0.0006,0.0084,0.0084,0.0084,0.0031,0.0027,0.0024,0,0,0,0,0,-0.0297,-0.0309,-0.0295,-0.0291,-0.0252,-0.0229,-0.0221,-0.0187,-0.0172,-0.017,-0.0128,-0.01,-0.0014,-0.0018,-0.0007,-0.0004,0.0084,0.0084,0.0084,0.0032,0.0028,0.0024,0,0,0,0,0,0,-0.0336,-0.0303,-0.0288,-0.029,-0.0264,-0.022,-0.0217,-0.0193,-0.0159,-0.0154,-0.0099,-0.0086,-0.0055,-0.0023,-0.0029,0.0022,0.004,0.0042,-0.0004,-0.0008,-0.0011,-0.0024,0.0009,0,0,0,0,0,-0.0347,-0.0346,-0.0309,-0.0311,-0.0301,-0.026,-0.0247,-0.0224,-0.0188,-0.0172,-0.013,-0.0085,-0.0046,-0.0023,0.0013,0.0041,0.008,0.0051,0.0047,0.0044,0.0042,0.0104,0.0106,0.0084,0.0084,0.0084,0,0,-0.0363,-0.0345,-0.0345,-0.0319,-0.0296,-0.0289,-0.0251,-0.0237,-0.0226,-0.0166,-0.0141,-0.0098,-0.0043,-0.0012,0.0005,0.0016,0.007,0.0044,0.0041,0.0041,0.0104,0.0107,0.0109,0.0084,0.0084,0.0084,0,0,-0.0398,-0.0379,-0.039,-0.0372,-0.0344,-0.0316,-0.0315,-0.0273,-0.025,-0.0222,-0.0174,-0.0131,-0.0077,-0.0032,-0.0004,-0.0004,0.0046,0.0006,-0.0016,0.0044,0.0046,0.0049,0.0094,0.0101,0.0008,0.0008,0.0008,0,-0.0421,-0.0426,-0.0391,-0.0395,-0.0385,-0.0333,-0.034,-0.031,-0.0261,-0.0239,-0.0224,-0.0129,-0.0085,-0.0034,-0.0033,-0.0011,0.0026,-0.0007,0.0039,0.0043,0.0046,0.0092,0.0101,0.0005,0.0005,0.0006,0.0006,0,-0.0461,-0.0464,-0.0469,-0.0455,-0.0439,-0.0438,-0.0392,-0.037,-0.0335,-0.0296,-0.0242,-0.0176,-0.0119,-0.0096,-0.0064,-0.0017,0.0002,0.0024,0.0047,0.0045,0.0093,0.0103,0.0001,0.0002,0.0003,0.0004,0,0,-0.0515,-0.0502,-0.0504,-0.0507,-0.0471,-0.0464,-0.0443,-0.0406,-0.0388,-0.0329,-0.0297,-0.0223,-0.0179,-0.0144,-0.009,-0.0035,0.002,-0.0001,0.0004,0.0039,0.0145,0.0175,0.0189,0.0052,0.0054,0.0055,0.0166,0,-0.0558,-0.0587,-0.0559,-0.0577,-0.0587,-0.0532,-0.0517,-0.0472,-0.0422,-0.0376,-0.0291,-0.0241,-0.0198,-0.0168,-0.0107,-0.0009,0.0045,-0.0013,0.0147,0.0151,0.0175,0.0202,0.018,0.0279,0.0176,0.0177,0.0179,0,-0.0607,-0.0619,-0.0651,-0.0639,-0.0636,-0.0633,-0.0594,-0.0571,-0.0488,-0.0446,-0.0374,-0.0303,-0.0212,-0.0177,-0.0015,-0.0054,0.0035,0.0112,0.0118,0.0173,0.02,0.0267,0.0301,0.0196,0.0194,0.0193,0.0192,0,-0.0672,-0.068,-0.0709,-0.0707,-0.0685,-0.0682,-0.0662,-0.0596,-0.0571,-0.0485,-0.0454,-0.0336,-0.0268,-0.0145,0.0012,0.0001,0.0195,0.0201,0.0312,0.0315,0.0342,0.0345,0.0314,0.0314,0.0314,0.0314,0.0313,0,-0.0732,-0.0752,-0.0744,-0.0762,-0.0789,-0.0744,-0.0746,-0.0706,-0.0638,-0.0599,-0.0497,-0.0433,-0.0254,-0.012,0.0007,0.0196,0.0195,0.0316,0.0353,0.0321,0.032,0.0284,0.0278,0.0318,0.0317,0.0316,0.0315,0,-0.08,-0.0794,-0.0829,-0.0824,-0.0824,-0.0843,-0.0813,-0.0804,-0.0733,-0.0678,-0.0651,-0.0491,-0.0307,-0.0129,0.0094,0.0197,0.0367,0.0432,0.0376,0.0404,0.0442,0.0433,0.0559,0.0561,0.0563,0.0565,0.0566,0,-0.0839,-0.0866,-0.0889,-0.0914,-0.0916,-0.0928,-0.0932,-0.0867,-0.0842,-0.0703,-0.0677,-0.0488,-0.0335,-0.001,0.0212,0.0445,0.0437,0.0545,0.0523,0.0448,0.0471,0.0459,0.0447,0.0534,0.0535,0.0536,0.0536,0,-0.0908,-0.0915,-0.0944,-0.1003,-0.1025,-0.1039,-0.1028,-0.1016,-0.0914,-0.0838,-0.0686,-0.0547,-0.0225,0.0048,0.0342,0.0469,0.0503,0.0568,0.0531,0.047,0.0433,0.0452,0.044,0.0543,0.0542,0.0542,0.0542,0.0541,-0.0953,-0.0994,-0.1033,-0.1085,-0.1117,-0.113,-0.1161,-0.1095,-0.103,-0.0896,-0.0711,-0.0496,-0.0215,0.0197,0.0423,0.0608,0.0601,0.0637,0.0631,0.0626,0.0597,0.0565,0.0694,0.0695,0.0695,0.0695,0.0695,0,-0.1003,-0.1046,-0.1108,-0.1168,-0.1224,-0.1218,-0.1219,-0.1212,-0.1138,-0.0927,-0.0747,-0.0399,-0.0082,0.0181,0.0493,0.0691,0.0668,0.0706,0.064,0.0633,0.0627,0.0595,0.0694,0.0695,0.0695,0.0695,0,0,-0.103,-0.1101,-0.1134,-0.1242,-0.1296,-0.1357,-0.1373,-0.1303,-0.1176,-0.095,-0.0754,-0.0491,-0.0116,0.0103,0.0373,0.0534,0.0518,0.054,0.0523,0.0406,0.0397,0.0575,0.0518,0,0,0,0,0]}],[{"header":{"parameterUnit":"m.s-1","parameterCategory":2,"la1":30.2991,"la2":30.254,"lo1":-89.0895,"lo2":-89.0444,"dy":0.0017,"dx":0.0017,"nx":28,"ny":28,"refTime":"2026-02-26T03:00:00:Z","depth":"4","parameterNumber":2,"parameterNumberName":"U-component_of_CURRENTS"},"data":[0,0,0,0,0,0,0,0,0,0,0,0,0,0,0,0,0,0,0,0,0,0,0,0,0,0,0,0,0,0,0,0,0,0,0,0,0,0,0,0,0,0,0,0,0,0,0,0,0,0,0,0,0,0,0,0,0,0,-0.1705,-0.1706,0,-0.1775,-0.1776,-0.1777,-0.1813,-0.1813,-0.1813,-0.1813,-0.1869,-0.1871,-0.1872,0,0,0,0,0,0,0,0,0,0,0,0,0,-0.1599,-0.1601,-0.1705,-0.1706,-0.1707,-0.1775,-0.1776,-0.1777,-0.1813,-0.1813,-0.1813,-0.1813,-0.1869,-0.1871,-0.1872,0,0,0,0,0,0,0,0,0,0,0,0,0,-0.1653,-0.1601,-0.1705,-0.1735,-0.1738,-0.1775,-0.1776,-0.1777,-0.1813,-0.1813,-0.1813,-0.1814,-0.1869,-0.187,-0.1872,-0.1878,0,0,-0.1878,-0.1879,0,0,0,0,0,0,0,0,-0.165,-0.1657,-0.1729,-0.1733,-0.1737,-0.1787,-0.1759,-0.1811,-0.1813,-0.1782,-0.1813,-0.1814,-0.1842,-0.1846,-0.1856,-0.188,-0.1883,-0.1878,-0.188,-0.188,-0.1881,0,0,0,0,0,0,0,-0.1646,-0.1654,-0.1731,-0.1731,-0.1735,-0.1744,-0.1752,-0.1769,-0.1807,-0.1785,-0.1788,-0.1799,-0.1843,-0.1854,-0.1857,-0.1883,-0.1878,-0.188,-0.1881,-0.1882,-0.1986,-0.1987,0,0,0,0,0,0,-0.1642,-0.165,-0.1729,-0.1733,-0.1696,-0.1746,-0.1754,-0.1769,-0.1808,-0.1815,-0.1799,-0.1801,-0.185,-0.1855,-0.1859,-0.1934,-0.188,-0.1882,-0.1883,-0.1984,-0.1986,-0.1988,0,0,0,0,0,0,-0.1639,-0.1648,-0.1726,-0.1695,-0.1705,-0.1747,-0.1764,-0.177,-0.1809,-0.1819,-0.1825,-0.1834,-0.1851,-0.1857,-0.1904,-0.1934,-0.1883,-0.1885,-0.1982,-0.1985,-0.1987,-0.2041,0,0,0,0,0,0,-0.1636,-0.1647,-0.167,-0.1694,-0.1707,-0.1767,-0.1764,-0.1772,-0.1814,-0.1818,-0.185,-0.1854,-0.1851,-0.1901,-0.1906,-0.1936,-0.1886,-0.198,-0.1984,-0.1986,-0.2037,-0.2045,-0.2051,0,0,0,0,0,-0.1632,-0.1657,-0.167,-0.1681,-0.1733,-0.1768,-0.1776,-0.1804,-0.1816,-0.1839,-0.1864,-0.1855,-0.1923,-0.1904,-0.1909,-0.194,-0.1979,-0.1983,-0.1986,-0.2034,-0.2043,-0.2051,0,0,0,0,0,0,-0.1624,-0.1664,-0.1679,-0.1716,-0.175,-0.1775,-0.1804,-0.1822,-0.1861,-0.1872,-0.1877,-0.1884,-0.1935,-0.1933,-0.1912,-0.198,-0.1949,-0.1953,-0.1983,-0.1992,-0.1999,-0.1989,-0.1888,0,0,0,0,0,-0.1632,-0.1663,-0.1698,-0.1731,-0.175,-0.1783,-0.1807,-0.1828,-0.1859,-0.1878,-0.1901,-0.1926,-0.1949,-0.1968,-0.1987,-0.2027,-0.2002,-0.205,-0.2057,-0.2063,-0.206,-0.2054,-0.206,-0.2,-0.2,-0.2,0,0,-0.1639,-0.1665,-0.1684,-0.1732,-0.176,-0.1796,-0.1799,-0.1845,-0.188,-0.1877,-0.194,-0.1956,-0.1966,-0.201,-0.2033,-0.2016,-0.2067,-0.2068,-0.2073,-0.2066,-0.2059,-0.2064,-0.2069,-0.2002,-0.2002,-0.2002,0,0,-0.1656,-0.1692,-0.1721,-0.1753,-0.1804,-0.1825,-0.1845,-0.1892,-0.1921,-0.1977,-0.1983,-0.2017,-0.2062,-0.2071,-0.2079,-0.2138,-0.2106,-0.2153,-0.2181,-0.2177,-0.2181,-0.2185,-0.2155,-0.2155,-0.2155,-0.2156,-0.2156,0,-0.1665,-0.1703,-0.1735,-0.177,-0.1803,-0.1841,-0.1879,-0.1915,-0.1973,-0.1996,-0.2007,-0.2072,-0.2086,-0.2122,-0.2146,-0.2153,-0.2137,-0.2147,-0.2185,-0.2188,-0.219,-0.2158,-0.2158,-0.2159,-0.2158,-0.2158,-0.2158,0,-0.1692,-0.1737,-0.1759,-0.1815,-0.1854,-0.1896,-0.1944,-0.1991,-0.2032,-0.2059,-0.2119,-0.214,-0.2171,-0.2189,-0.2188,-0.2221,-0.2198,-0.2193,-0.2158,-0.2199,-0.2163,-0.2162,-0.2163,-0.2162,-0.2161,-0.216,0,0,-0.1668,-0.1761,-0.1771,-0.1808,-0.1883,-0.1914,-0.198,-0.2037,-0.2075,-0.2134,-0.2172,-0.2224,-0.2233,-0.2243,-0.225,-0.2253,-0.2261,-0.2238,-0.2236,-0.2198,-0.2235,-0.2083,-0.2067,-0.2265,-0.2266,-0.2266,-0.2199,0,-0.1682,-0.1751,-0.1796,-0.1869,-0.1908,-0.1968,-0.2021,-0.208,-0.2128,-0.2176,-0.2205,-0.2246,-0.2254,-0.2273,-0.2281,-0.2266,-0.2261,-0.2278,-0.2208,-0.2205,-0.2058,-0.2062,-0.2267,-0.2198,-0.2197,-0.2197,-0.2197,0,-0.1683,-0.1734,-0.1807,-0.1897,-0.1921,-0.1973,-0.2057,-0.211,-0.2177,-0.2212,-0.2255,-0.2274,-0.23,-0.2298,-0.2286,-0.2298,-0.2273,-0.2255,-0.2252,-0.2088,-0.2051,-0.215,-0.2193,-0.2194,-0.2194,-0.2194,-0.2194,0,-0.1634,-0.1735,-0.1796,-0.1829,-0.1937,-0.1986,-0.2044,-0.2123,-0.2162,-0.2234,-0.2257,-0.2293,-0.2306,-0.2294,-0.2265,-0.2281,-0.2228,-0.2239,-0.2074,-0.2063,-0.2197,-0.2194,-0.2221,-0.2221,-0.2221,-0.2221,-0.2222,0,-0.161,-0.1661,-0.1786,-0.1818,-0.1887,-0.1973,-0.2042,-0.2102,-0.2175,-0.2197,-0.227,-0.227,-0.2309,-0.2285,-0.226,-0.2142,-0.2219,-0.2063,-0.2032,-0.2221,-0.2221,-0.2194,-0.2192,-0.2219,-0.2219,-0.222,-0.222,0,-0.1537,-0.1624,-0.1698,-0.1826,-0.1868,-0.1917,-0.2033,-0.2066,-0.2154,-0.2181,-0.2201,-0.2253,-0.2208,-0.2211,-0.2173,-0.2107,-0.203,-0.1973,-0.2152,-0.2135,-0.1871,-0.1873,-0.1776,-0.177,-0.1765,-0.176,-0.1757,0,-0.1501,-0.1537,-0.1683,-0.1722,-0.1785,-0.1874,-0.192,-0.2037,-0.206,-0.2138,-0.2122,-0.2129,-0.2136,-0.1942,-0.1981,-0.1893,-0.188,-0.1834,-0.1873,-0.1844,-0.1825,-0.1835,-0.1843,-0.1749,-0.1747,-0.1746,-0.1745,0,-0.1423,-0.1493,-0.1551,-0.1634,-0.1702,-0.1761,-0.1837,-0.1839,-0.1942,-0.2045,-0.1969,-0.1927,-0.1867,-0.182,-0.176,-0.1712,-0.1862,-0.1781,-0.1793,-0.1829,-0.1811,-0.1799,-0.1813,-0.1727,-0.173,-0.1731,-0.1732,0,-0.1358,-0.1378,-0.1462,-0.1515,-0.1596,-0.1606,-0.1672,-0.1681,-0.1717,-0.1808,-0.1773,-0.1777,-0.1831,-0.1723,-0.167,-0.1601,-0.1587,-0.1549,-0.1572,-0.1592,-0.1565,-0.1517,-0.1298,0,0,0,0,0,-0.1282,-0.1286,-0.133,-0.137,-0.144,-0.1475,-0.1588,-0.1652,-0.1755,-0.1646,-0.1703,-0.1633,-0.1545,-0.1559,-0.1445,-0.1598,-0.1604,-0.1463,-0.1576,-0.163,-0.165,-0.1636,0,0,0,0,0,0,-0.1229,-0.1269,-0.1281,-0.1231,-0.1217,-0.1266,-0.1329,-0.1405,-0.136,-0.147,-0.1423,-0.1512,-0.1448,-0.1548,-0.1392,-0.1398,-0.1434,-0.1485,-0.148,-0.1618,-0.1637,-0.1653,-0.1646,0,0,0,0,0]},{"header":{"parameterUnit":"m.s-1","parameterCategory":2,"la1":30.2991,"la2":30.254,"lo1":-89.0895,"lo2":-89.0444,"dy":0.0017,"dx":0.0017,"nx":28,"ny":28,"refTime":"2026-02-26T03:00:00:Z","depth":"4","parameterNumber":3,"parameterNumberName":"V-component_of_CURRENTS"},"data":[0,0,0,0,0,0,0,0,0,0,0,0,0,0,0,0,0,0,0,0,0,0,0,0,0,0,0,0,0,0,0,0,0,0,0,0,0,0,0,0,0,0,0,0,0,0,0,0,0,0,0,0,0,0,0,0,0,0,-0.0237,-0.0236,0,-0.0189,-0.0189,-0.0188,-0.0154,-0.0154,-0.0154,-0.0154,-0.0072,-0.007,-0.0068,0,0,0,0,0,0,0,0,0,0,0,0,0,-0.0268,-0.0268,-0.0237,-0.0236,-0.0236,-0.0189,-0.0189,-0.0188,-0.0154,-0.0154,-0.0154,-0.0153,-0.0073,-0.0071,-0.0068,0,0,0,0,0,0,0,0,0,0,0,0,0,-0.024,-0.0268,-0.0237,-0.0214,-0.0211,-0.0189,-0.0188,-0.0188,-0.0154,-0.0154,-0.0154,-0.0153,-0.0074,-0.0071,-0.0068,-0.0056,0,0,-0.0059,-0.0057,0,0,0,0,0,0,0,0,-0.0242,-0.0239,-0.0218,-0.0215,-0.0213,-0.0178,-0.017,-0.0142,-0.0154,-0.0175,-0.0154,-0.0153,-0.0105,-0.01,-0.0091,-0.0052,-0.0048,-0.0059,-0.0057,-0.0055,-0.0055,0,0,0,0,0,0,0,-0.0244,-0.0241,-0.0217,-0.0217,-0.0214,-0.0196,-0.0192,-0.0164,-0.0141,-0.0173,-0.0171,-0.0167,-0.0103,-0.0094,-0.0088,-0.0047,-0.0059,-0.0056,-0.0054,-0.0053,0.0011,0.0011,0,0,0,0,0,0,-0.0253,-0.0243,-0.0219,-0.0216,-0.0228,-0.0196,-0.0191,-0.0189,-0.0142,-0.0135,-0.0167,-0.0166,-0.0099,-0.0092,-0.0085,-0.0068,-0.0055,-0.0053,-0.0051,0.0011,0.0011,0.0011,0,0,0,0,0,0,-0.0254,-0.0252,-0.022,-0.0229,-0.0223,-0.0196,-0.0193,-0.0188,-0.018,-0.0138,-0.013,-0.0165,-0.0098,-0.009,-0.0064,-0.0064,-0.0051,-0.0049,0.0011,0.0011,0.0011,-0.0032,0,0,0,0,0,0,-0.0255,-0.0252,-0.0257,-0.0229,-0.0223,-0.0215,-0.0193,-0.0187,-0.0179,-0.0176,-0.0134,-0.0126,-0.0097,-0.0069,-0.0061,-0.006,-0.0046,0.0011,0.0011,0.0011,-0.0031,-0.0034,-0.0036,0,0,0,0,0,-0.0257,-0.0266,-0.0258,-0.0255,-0.023,-0.0216,-0.0211,-0.0189,-0.0179,-0.018,-0.015,-0.0127,-0.0064,-0.0067,-0.0058,-0.0055,0.0011,0.0011,0.0011,-0.0029,-0.0033,-0.0036,0,0,0,0,0,0,-0.0284,-0.0263,-0.0253,-0.0256,-0.0241,-0.0211,-0.0211,-0.0195,-0.0172,-0.017,-0.0128,-0.0118,-0.0097,-0.0071,-0.0075,-0.0038,-0.0023,-0.0021,-0.0057,-0.006,-0.0063,-0.0072,-0.0044,0,0,0,0,0,-0.0293,-0.0294,-0.027,-0.0274,-0.0268,-0.0241,-0.0233,-0.0218,-0.0193,-0.0183,-0.0153,-0.012,-0.009,-0.0072,-0.0046,-0.0024,0.0008,-0.0017,-0.002,-0.0022,-0.0024,0.003,0.0032,0.001,0.001,0.001,0,0,-0.0305,-0.0294,-0.0295,-0.028,-0.0266,-0.0263,-0.0236,-0.0229,-0.0224,-0.0178,-0.0163,-0.0131,-0.0088,-0.0066,-0.0053,-0.0043,-0.0001,-0.0023,-0.0025,-0.0025,0.003,0.0032,0.0034,0.001,0.001,0.001,0,0,-0.0332,-0.0321,-0.0331,-0.0321,-0.0305,-0.0286,-0.0287,-0.0259,-0.0245,-0.0227,-0.0191,-0.0158,-0.0119,-0.0082,-0.006,-0.0061,-0.0022,-0.0056,-0.0072,-0.002,-0.0018,-0.0016,0.0018,0.0024,-0.0053,-0.0054,-0.0054,0,-0.0349,-0.0356,-0.0333,-0.0339,-0.0334,-0.03,-0.0308,-0.0287,-0.0255,-0.0239,-0.0231,-0.016,-0.0125,-0.0083,-0.0084,-0.0067,-0.0038,-0.0064,-0.0024,-0.0021,-0.0017,0.0017,0.0024,-0.0056,-0.0055,-0.0055,-0.0055,0,-0.038,-0.0386,-0.0392,-0.0386,-0.0378,-0.038,-0.0349,-0.0337,-0.0314,-0.0286,-0.0247,-0.0196,-0.0152,-0.0135,-0.011,-0.0069,-0.0057,-0.0037,-0.0016,-0.0018,0.0018,0.0026,-0.0059,-0.0058,-0.0057,-0.0057,0,0,-0.0417,-0.0415,-0.0419,-0.0424,-0.0403,-0.0401,-0.0389,-0.0364,-0.0353,-0.0312,-0.0288,-0.0231,-0.0198,-0.017,-0.0127,-0.008,-0.0035,-0.0054,-0.0051,-0.0024,0.0068,0.0058,0.0066,-0.0006,-0.0005,-0.0004,0.008,0,-0.0449,-0.0477,-0.046,-0.048,-0.0489,-0.0454,-0.0446,-0.0416,-0.0382,-0.0349,-0.0282,-0.0246,-0.0212,-0.0189,-0.0138,-0.0059,-0.0014,-0.006,0.0068,0.0072,0.0061,0.0075,0.0,0.0086,0.0088,0.009,0.0091,0,-0.0484,-0.0497,-0.0529,-0.0526,-0.0526,-0.0531,-0.0508,-0.0494,-0.0434,-0.0404,-0.0349,-0.0294,-0.022,-0.0193,-0.006,-0.0092,-0.002,0.0041,0.0046,0.0058,0.0077,0.0092,0.0106,0.0105,0.0104,0.0103,0.0102,0,-0.0525,-0.0541,-0.057,-0.0572,-0.0564,-0.057,-0.0561,-0.0516,-0.05,-0.0437,-0.0415,-0.0319,-0.0266,-0.0165,-0.004,-0.0048,0.0107,0.0116,0.0175,0.0174,0.0177,0.0174,0.021,0.021,0.021,0.021,0.021,0,-0.0561,-0.0585,-0.0598,-0.0614,-0.0645,-0.0618,-0.0629,-0.0603,-0.0556,-0.0529,-0.045,-0.0401,-0.0254,-0.0147,-0.0045,0.0089,0.0108,0.0174,0.02,0.0155,0.0148,0.0183,0.0178,0.0213,0.0212,0.0212,0.0211,0,-0.06,-0.0609,-0.0646,-0.066,-0.0669,-0.0691,-0.0686,-0.0682,-0.0636,-0.0597,-0.0577,-0.0451,-0.0309,-0.0165,0.0016,0.0083,0.0212,0.0256,0.0189,0.021,0.0241,0.0234,0.032,0.032,0.0321,0.0321,0.0321,0,-0.062,-0.0645,-0.0692,-0.0722,-0.0736,-0.0761,-0.0773,-0.0733,-0.0716,-0.0621,-0.0598,-0.0457,-0.036,-0.0118,0.0028,0.022,0.0246,0.0297,0.0273,0.0238,0.0255,0.0247,0.0239,0.0322,0.0322,0.0322,0.0322,0,-0.0655,-0.0679,-0.071,-0.078,-0.0814,-0.0839,-0.0845,-0.0833,-0.0765,-0.0727,-0.0596,-0.0458,-0.0295,-0.011,0.0044,0.018,0.0253,0.0301,0.0301,0.0279,0.0241,0.0256,0.0248,0.0323,0.0323,0.0323,0.0323,0,-0.0681,-0.0716,-0.0767,-0.0821,-0.0876,-0.0897,-0.0891,-0.0843,-0.0809,-0.0686,-0.0639,-0.0455,-0.0334,-0.0129,0.0012,0.0144,0.0169,0.0191,0.0197,0.0197,0.0133,0.0065,0.012,0,0,0,0,0,-0.0696,-0.0739,-0.08,-0.0861,-0.0917,-0.0943,-0.0929,-0.0903,-0.0832,-0.0744,-0.0683,-0.0524,-0.0286,-0.0179,-0.0048,-0.0004,0.017,0.0149,0.0193,0.033,0.0329,0.0274,0,0,0,0,0,0,-0.0708,-0.0771,-0.0802,-0.0883,-0.0932,-0.0979,-0.097,-0.0919,-0.085,-0.076,-0.0627,-0.0529,-0.0297,-0.0371,-0.0061,-0.0018,0.002,0.0271,0.0273,0.0331,0.033,0.0329,0.0271,0,0,0,0,0]}]]